Date,TemperatureHighF,TemperatureAvgF,TemperatureLowF,DewpointHighF,DewpointAvgF,DewpointLowF,HumidityHigh,HumidityAvg,HumidityLow,PressureMaxIn,PressureMinIn,WindSpeedMaxMPH,WindSpeedAvgMPH,GustSpeedMaxMPH,PrecipitationSumIn
2014-1-1,22,18,15,16,14,11,84,81,78,30.14,29.96,0,0,0,0.00
2014-1-2,16,12,5,11,6,-6,85,76,56,30.22,29.86,0,0,0,0.00
2014-1-3,16,8,-6,5,-1,-12,79,66,56,30.35,29.96,0,0,0,0.00
2014-1-4,33,26,15,23,15,4,68,63,58,29.97,29.76,0,0,0,0.00
2014-1-5,33,27,12,28,24,7,94,88,68,29.83,29.53,0,0,0,0.00
2014-1-6,17,-9,-14,6,-18,-24,81,65,58,30.17,29.66,0,0,0,0.00
2014-1-7,8,-4,-12,0,-12,-20,70,66,61,30.25,30.14,0,0,0,0.00
2014-1-8,18,8,-1,8,2,-7,79,73,64,30.36,30.16,0,0,0,0.00
2014-1-9,28,14,0,26,9,-5,91,80,69,30.38,30.06,0,0,0,0.00
2014-1-10,43,36,28,41,34,25,100,94,88,30.08,29.44,0,0,0,0.37
2014-1-11,43,37,32,42,35,26,100,93,79,29.59,29.25,0,0,0,0.05
2014-1-12,42,34,29,31,28,25,86,76,60,29.82,29.56,0,0,0,0.00
2014-1-13,48,42,32,38,33,27,83,70,63,29.59,29.40,0,0,0,0.00
2014-1-14,38,30,25,31,23,16,90,76,54,29.69,29.52,0,0,0,0.00
2014-1-15,26,21,17,16,12,9,79,70,62,29.92,29.69,0,0,0,0.00
2014-1-16,29,24,17,27,19,9,92,81,61,29.85,29.44,0,0,0,0.00
2014-1-17,26,17,11,14,9,4,80,72,63,29.84,29.52,0,0,0,0.00
2014-1-18,20,15,10,16,10,5,87,80,68,29.84,29.64,0,0,0,0.00
2014-1-19,36,22,10,25,16,7,87,77,64,29.72,29.41,0,0,0,0.00
2014-1-20,37,32,21,28,25,17,85,75,63,29.78,29.39,0,0,0,0.00
2014-1-21,23,10,4,17,0,-6,85,64,46,30.08,29.77,0,0,0,0.00
2014-1-22,14,6,-2,10,0,-8,84,74,65,30.07,29.80,0,0,0,0.00
2014-1-23,8,1,-4,-2,-8,-13,73,64,58,30.44,29.90,0,0,0,0.00
2014-1-24,20,6,-6,16,-3,-14,87,66,54,30.44,29.49,0,0,0,0.00
2014-1-25,30,20,5,26,9,-6,91,66,37,29.73,29.24,0,0,0,0.00
2014-1-26,32,18,4,27,12,-5,87,74,58,29.72,29.28,0,0,0,0.01
2014-1-27,23,0,-10,6,-10,-18,70,62,41,30.30,29.45,0,0,0,0.00
2014-1-28,2,-5,-12,-8,-14,-20,70,63,50,30.34,30.15,0,0,0,0.00
2014-1-29,20,9,-2,4,-2,-10,72,59,47,30.17,30.00,0,0,0,0.00
2014-1-30,33,23,15,22,9,2,82,55,47,30.01,29.59,0,0,0,0.00
2014-1-31,33,26,22,24,21,15,90,79,48,29.97,29.72,0,0,0,0.00
2014-2-1,36,31,27,36,30,24,100,95,90,29.91,29.61,0,0,0,0.35
2014-2-2,28,23,16,25,18,10,89,78,67,30.13,29.84,0,0,0,0.00
2014-2-3,25,15,5,16,8,1,86,75,57,30.25,30.10,0,0,0,0.00
2014-2-4,24,15,6,16,9,2,86,77,51,30.28,29.87,0,0,0,0.00
2014-2-5,24,20,18,18,15,11,88,81,70,30.25,29.74,0,0,0,0.00
2014-2-6,18,4,-6,13,-3,-13,85,74,63,30.32,30.24,0,0,0,0.00
2014-2-7,9,0,-9,-2,-8,-15,73,67,59,30.32,30.24,0,0,0,0.00
2014-2-8,17,10,-1,12,4,-6,86,78,70,30.25,29.99,0,0,0,0.00
2014-2-9,18,15,6,14,9,0,87,79,66,30.11,29.93,0,0,0,0.00
2014-2-10,12,2,-6,2,-5,-12,81,73,62,30.32,30.10,0,0,0,0.00
2014-2-11,16,1,-11,5,-6,-17,78,71,56,30.41,30.29,0,0,0,0.00
2014-2-12,24,6,-12,9,-3,-19,79,66,46,30.32,29.90,0,0,0,0.00
2014-2-13,32,18,-1,25,7,-6,80,63,45,29.92,29.36,0,0,0,0.01
2014-2-14,32,19,14,25,12,7,79,74,64,29.73,29.36,0,0,0,0.00
2014-2-15,20,16,11,14,10,5,84,76,62,29.95,29.71,0,0,0,0.00
2014-2-16,25,20,11,16,14,7,85,77,65,30.14,29.78,0,0,0,0.00
2014-2-17,29,21,13,26,16,8,91,80,68,30.16,29.53,0,0,0,0.00
2014-2-18,47,36,27,30,26,22,89,67,45,29.87,29.51,0,0,0,0.10
2014-2-19,43,36,30,31,29,26,84,73,61,29.87,29.46,0,0,0,0.00
2014-2-20,52,39,32,52,35,26,100,87,72,29.85,29.16,0,0,0,0.85
2014-2-21,38,34,31,29,24,17,81,67,49,29.69,29.35,0,0,0,0.01
2014-2-22,38,32,27,28,22,12,90,69,43,29.87,29.64,0,0,0,0.00
2014-2-23,31,25,19,27,14,8,87,63,44,30.04,29.86,0,0,0,0.00
2014-2-24,24,19,12,12,9,5,71,64,53,30.11,30.03,0,0,0,0.00
2014-2-25,24,19,10,12,10,1,77,67,58,30.07,29.95,0,0,0,0.00
2014-2-26,15,10,3,4,-1,-6,69,61,48,30.07,29.58,0,0,0,0.00
2014-2-27,19,11,3,9,-1,-6,80,58,45,30.06,29.49,0,0,0,0.00
2014-2-28,30,16,1,11,2,-7,76,55,36,30.12,29.89,0,0,0,0.00
2014-3-1,32,26,17,24,17,12,85,67,48,30.12,29.85,0,0,0,0.00
2014-3-2,19,15,9,13,8,0,85,75,60,30.22,30.08,0,0,0,0.00
2014-3-3,19,9,0,0,-4,-9,69,56,37,30.35,30.19,0,0,0,0.00
2014-3-4,25,14,7,8,2,-4,72,57,47,30.27,30.05,0,0,0,0.00
2014-3-5,24,18,8,20,11,2,84,74,65,30.28,30.09,0,0,0,0.00
2014-3-6,33,22,15,15,11,6,72,61,46,30.27,29.98,0,0,0,0.00
2014-3-7,49,32,13,31,21,8,84,65,45,30.01,29.76,0,0,0,0.00
2014-3-8,40,32,22,30,26,17,92,80,64,30.09,29.76,0,0,0,0.03
2014-3-9,38,29,18,29,23,15,89,77,63,30.11,29.75,0,0,0,0.00
2014-3-10,54,44,36,42,35,29,84,71,60,29.75,29.50,0,0,0,0.00
2014-3-11,54,43,35,43,38,32,95,81,65,29.53,29.43,0,0,0,0.00
2014-3-12,39,27,15,34,25,12,100,91,79,29.92,29.33,0,0,0,0.07
2014-3-13,31,20,8,29,18,3,94,89,82,30.05,29.80,0,0,0,0.00
2014-3-14,54,42,31,40,34,29,100,76,49,29.80,29.48,0,0,0,0.00
2014-3-15,42,36,30,31,27,19,85,71,52,30.05,29.68,0,0,0,0.00
2014-3-16,30,25,19,20,9,2,67,50,39,30.14,30.00,0,0,0,0.00
2014-3-17,38,25,13,23,12,4,77,59,40,29.98,29.70,0,0,0,0.00
2014-3-18,52,38,24,36,28,21,87,70,49,29.78,29.55,0,0,0,0.00
2014-3-19,50,43,35,43,38,27,90,82,72,29.79,29.45,0,0,0,0.11
2014-3-20,45,36,30,30,26,22,84,69,52,29.91,29.80,0,0,0,0.00
2014-3-21,62,45,30,40,32,25,88,65,38,29.89,29.51,0,0,0,0.00
2014-3-22,53,39,30,40,29,22,76,67,53,30.08,29.55,0,0,0,0.00
2014-3-23,30,26,21,23,14,8,78,60,41,30.22,30.09,0,0,0,0.00
2014-3-24,34,25,16,16,12,9,85,58,36,30.22,29.96,0,0,0,0.00
2014-3-25,29,26,21,22,14,6,86,61,39,30.06,29.80,0,0,0,0.00
2014-3-26,38,28,16,16,12,8,79,52,35,30.20,29.96,0,0,0,0.00
2014-3-27,50,39,33,40,28,14,84,65,40,29.97,29.43,0,0,0,0.20
2014-3-28,51,42,31,45,35,27,91,78,65,30.01,29.38,0,0,0,0.01
2014-3-29,39,34,30,35,30,25,100,85,70,30.04,29.92,0,0,0,0.00
2014-3-30,54,39,25,31,27,23,92,65,34,30.10,29.93,0,0,0,0.00
2014-3-31,66,52,37,34,31,28,72,48,25,29.95,29.67,0,0,0,0.00
2014-4-1,58,49,41,43,33,26,73,54,39,29.90,29.56,0,0,0,0.03
2014-4-2,60,48,37,35,32,29,79,54,34,29.98,29.86,0,0,0,0.00
2014-4-3,49,40,37,38,35,31,93,84,50,29.86,29.53,0,0,5,1.60
2014-4-4,50,40,36,50,36,27,100,87,67,29.75,29.31,0,0,0,0.02
2014-4-5,49,39,32,28,24,16,74,55,28,30.03,29.76,0,0,0,0.00
2014-4-6,56,43,30,32,25,19,72,49,30,30.02,29.79,0,0,0,0.00
2014-4-7,56,43,34,40,33,27,91,70,33,29.79,29.39,0,0,0,0.28
2014-4-8,54,45,36,41,35,31,91,70,49,29.70,29.42,0,0,0,0.00
2014-4-9,59,48,34,36,33,28,89,59,34,29.86,29.71,0,0,0,0.00
2014-4-10,67,56,46,48,40,34,84,57,38,29.77,29.57,0,0,0,0.01
2014-4-11,68,55,40,47,35,23,100,56,21,29.85,29.72,0,0,0,0.01
2014-4-12,77,63,47,52,42,28,62,45,32,29.88,29.58,0,0,0,0.00
2014-4-13,73,66,61,57,54,51,79,65,52,29.59,29.39,0,0,0,0.08
2014-4-14,65,46,30,58,40,25,90,81,72,29.74,29.22,0,0,0,0.15
2014-4-15,35,30,27,26,16,6,86,57,31,30.08,29.74,0,0,0,0.00
2014-4-16,50,39,28,26,18,13,58,44,30,30.22,30.05,0,0,0,0.00
2014-4-17,65,51,36,38,30,25,66,46,30,30.07,30.03,0,0,0,0.00
2014-4-18,64,54,40,42,37,29,75,55,31,30.14,30.04,0,0,0,0.00
2014-4-19,66,50,35,38,31,24,80,52,31,30.21,30.08,0,0,0,0.00
2014-4-20,76,58,40,40,30,24,65,38,17,30.12,29.89,0,0,0,0.00
2014-4-21,76,63,47,54,43,33,81,50,33,29.89,29.62,0,0,0,0.00
2014-4-22,60,49,41,56,36,27,92,63,40,29.85,29.56,0,0,0,0.03
2014-4-23,59,45,33,37,28,24,76,54,27,29.98,29.84,0,0,0,0.00
2014-4-24,62,55,48,36,27,20,64,37,21,29.90,29.55,0,0,0,0.00
2014-4-25,67,54,44,45,37,29,89,57,27,29.66,29.44,0,0,0,0.20
2014-4-26,60,54,46,42,36,26,69,51,29,29.81,29.63,0,0,0,0.00
2014-4-27,65,51,40,38,34,30,76,54,34,29.90,29.70,0,0,0,0.00
2014-4-28,52,49,45,47,40,29,92,74,47,29.73,29.44,0,0,0,0.14
2014-4-29,74,60,49,57,45,30,100,65,22,29.51,29.31,0,0,0,0.02
2014-4-30,59,52,43,47,43,34,87,72,53,29.68,29.51,0,0,0,0.00
2014-5-1,50,45,42,42,38,35,89,76,60,29.67,29.59,0,0,0,0.01
2014-5-2,52,48,45,44,41,39,88,79,62,29.69,29.63,0,0,0,0.01
2014-5-3,66,56,47,44,37,29,85,54,27,29.67,29.53,0,0,0,0.01
2014-5-4,57,52,43,40,30,18,58,43,27,29.90,29.67,0,0,0,0.00
2014-5-5,65,53,42,37,33,27,66,48,27,29.89,29.71,0,0,0,0.00
2014-5-6,72,57,41,37,34,30,75,45,25,29.83,29.71,0,0,0,0.00
2014-5-7,88,68,52,57,46,29,58,45,34,29.74,29.62,0,0,0,0.00
2014-5-8,89,77,66,60,56,52,68,50,31,29.74,29.64,0,0,0,0.00
2014-5-9,77,70,62,62,58,54,90,68,47,29.68,29.53,0,0,0,0.09
2014-5-10,74,63,50,56,40,30,82,48,21,29.81,29.66,0,0,0,0.00
2014-5-11,86,71,54,62,49,37,81,47,31,29.82,29.68,0,0,1,0.08
2014-5-12,83,73,62,68,64,60,100,77,57,29.77,29.70,0,0,0,0.07
2014-5-13,76,67,55,67,61,50,92,83,73,29.93,29.70,0,0,1,0.27
2014-5-14,55,52,48,50,48,45,92,87,80,29.97,29.66,0,0,0,0.58
2014-5-15,51,46,40,48,41,32,93,82,54,29.89,29.55,0,0,0,0.01
2014-5-16,50,42,36,40,36,32,92,80,58,29.90,29.82,0,0,1,0.04
2014-5-17,55,46,38,39,35,28,87,66,37,30.04,29.89,0,0,1,0.00
2014-5-18,67,54,39,40,34,29,86,52,27,30.11,30.04,0,0,2,0.00
2014-5-19,72,59,42,46,39,33,88,51,27,30.09,29.84,0,0,1,0.00
2014-5-20,82,70,59,63,55,44,68,60,48,29.89,29.68,0,0,0,0.01
2014-5-21,85,75,66,66,60,49,82,63,30,29.71,29.62,0,0,0,0.00
2014-5-22,72,65,58,64,50,45,82,59,41,29.92,29.68,0,0,0,0.00
2014-5-23,69,60,51,47,45,42,86,60,38,29.99,29.90,0,0,0,0.00
2014-5-24,79,64,45,51,45,41,91,57,27,30.04,29.92,0,0,0,0.00
2014-5-25,85,70,53,55,49,44,90,52,25,29.96,29.84,0,0,0,0.00
2014-5-26,87,71,57,66,58,48,88,64,39,29.90,29.74,0,0,3,0.23
2014-5-27,85,75,67,65,62,57,91,67,39,29.79,29.68,0,0,0,0.00
2014-5-28,86,72,64,66,63,60,92,74,43,29.80,29.72,0,0,0,0.02
2014-5-29,86,73,60,64,58,55,89,64,37,29.90,29.80,0,0,0,0.00
2014-5-30,86,73,59,57,50,46,75,48,26,30.00,29.90,0,0,0,0.00
2014-5-31,90,76,59,55,50,46,75,43,24,30.01,29.87,0,0,0,0.00
2014-6-1,92,77,62,63,53,46,68,46,22,29.93,29.73,0,0,0,0.00
2014-6-2,80,75,71,67,65,62,86,72,60,29.80,29.66,0,0,0,0.06
2014-6-3,83,74,64,67,56,43,87,57,26,29.74,29.68,17,3,25,0.01
2014-6-4,66,62,58,59,54,47,93,77,50,29.72,29.55,20,6,26,0.79
2014-6-5,80,65,53,55,49,42,92,61,28,29.79,29.69,11,2,12,0.00
2014-6-6,83,69,53,56,49,43,90,55,26,29.82,29.75,9,1,11,0.00
2014-6-7,86,72,56,58,51,45,91,53,24,29.83,29.61,11,2,14,0.00
2014-6-8,74,66,59,61,57,53,92,74,54,29.81,29.56,20,8,24,0.70
2014-6-9,80,67,55,58,54,48,91,66,36,29.81,29.71,10,2,12,0.00
2014-6-10,75,66,59,63,59,55,91,78,59,29.72,29.56,13,5,17,0.13
2014-6-11,81,71,65,66,63,60,92,79,51,29.56,29.47,16,5,21,0.35
2014-6-12,81,70,62,65,61,58,92,75,51,29.63,29.52,16,6,19,0.00
2014-6-13,70,64,53,58,46,32,76,54,26,29.86,29.63,19,6,22,0.00
2014-6-14,80,67,46,50,43,33,89,47,21,29.95,29.82,8,1,13,0.00
2014-6-15,86,72,52,65,55,46,84,56,36,29.86,29.70,18,5,22,0.00
2014-6-16,87,79,70,68,65,61,89,66,42,29.89,29.76,14,4,19,0.00
2014-6-17,90,82,74,70,68,65,76,63,49,29.78,29.65,26,5,33,0.00
2014-6-18,87,77,69,71,68,62,91,74,57,29.82,29.65,0,0,0,0.04
2014-6-19,88,76,68,70,67,64,95,76,52,29.88,29.77,0,0,0,0.12
2014-6-20,83,74,67,70,66,63,92,76,56,29.86,29.69,0,0,0,0.03
2014-6-21,86,73,66,70,65,61,96,77,45,29.80,29.67,0,0,0,0.28
2014-6-22,86,76,67,68,66,64,93,73,50,29.72,29.64,0,0,1,0.02
2014-6-23,86,74,68,74,68,64,92,81,58,29.70,29.62,0,0,1,0.30
2014-6-24,82,72,68,69,68,66,95,86,60,29.70,29.65,0,0,5,0.24
2014-6-25,82,72,64,70,65,61,100,80,52,29.81,29.68,0,0,5,0.00
2014-6-26,83,70,62,66,64,61,100,82,53,29.88,29.79,0,0,3,0.00
2014-6-27,90,77,62,68,63,60,99,67,38,29.87,29.80,1,0,3,0.00
2014-6-28,85,77,71,72,68,64,87,74,57,29.90,29.79,1,0,5,0.02
2014-6-29,85,78,72,71,68,65,86,73,56,29.82,29.73,0,0,6,0.00
2014-6-30,85,76,70,72,68,65,92,78,53,29.77,29.52,3,0,6,0.02
2014-7-1,83,73,65,73,64,60,100,76,46,29.64,29.43,0,0,3,0.35
2014-7-2,72,68,62,64,58,52,86,71,53,29.80,29.59,0,0,5,0.00
2014-7-3,71,63,56,56,50,43,90,65,40,30.00,29.80,0,0,2,0.00
2014-7-4,80,66,50,52,47,40,92,56,27,30.11,30.00,0,0,0,0.00
2014-7-5,80,68,52,56,51,46,90,58,33,30.10,29.89,0,0,0,0.00
2014-7-6,82,73,65,70,62,56,75,69,63,29.89,29.61,0,0,0,0.00
2014-7-7,86,78,71,70,68,66,91,74,52,29.62,29.51,0,0,0,0.10
2014-7-8,81,74,67,73,64,56,100,72,44,29.62,29.42,0,0,2,0.15
2014-7-9,77,70,62,61,58,53,90,67,44,29.84,29.62,0,0,0,0.00
2014-7-10,78,67,54,56,52,47,92,63,35,29.99,29.85,0,0,0,0.00
2014-7-11,84,70,53,62,54,48,94,61,31,30.03,29.92,8,1,19,0.00
2014-7-12,79,73,69,70,65,59,91,75,58,29.95,29.71,13,3,18,0.06
2014-7-13,82,76,71,73,68,63,93,77,56,29.73,29.66,16,2,20,0.20
2014-7-14,84,73,65,66,63,57,90,72,42,29.69,29.58,6,0,8,0.17
2014-7-15,67,62,56,62,52,48,90,72,51,29.75,29.60,0,0,0,0.00
2014-7-16,70,61,54,57,52,45,100,73,41,29.86,29.75,0,0,0,0.00
2014-7-17,76,63,47,53,47,37,94,62,28,29.95,29.86,0,0,0,0.00
2014-7-18,80,66,50,56,51,48,92,64,34,30.01,29.91,0,0,0,0.00
2014-7-19,80,67,53,60,56,50,94,70,44,29.92,29.81,0,0,0,0.00
2014-7-20,86,71,56,63,58,54,96,69,36,29.88,29.81,0,0,0,0.00
2014-7-21,88,74,58,63,60,56,93,65,38,29.93,29.84,27,1,32,0.00
2014-7-22,88,76,62,68,64,59,92,68,46,29.90,29.76,19,1,21,0.00
2014-7-23,77,70,58,69,62,52,95,77,58,29.89,29.76,17,1,25,0.24
2014-7-24,78,65,55,58,52,48,94,67,38,29.94,29.85,6,0,8,0.00
2014-7-25,76,65,52,58,54,49,94,70,48,29.92,29.75,1,0,5,0.00
2014-7-26,77,71,62,72,64,57,94,79,69,29.77,29.60,17,2,25,0.00
2014-7-27,85,74,65,74,66,54,100,77,40,29.62,29.44,17,2,22,0.02
2014-7-28,65,61,54,58,53,46,84,74,56,29.87,29.61,19,5,26,0.00
2014-7-29,75,63,51,61,52,48,92,70,42,29.88,29.79,17,2,26,0.05
2014-7-30,78,66,56,63,57,54,93,77,46,29.85,29.79,12,2,18,0.06
2014-7-31,81,68,55,62,58,53,99,73,43,29.86,29.83,25,4,25,0.00
2014-8-1,85,71,60,62,58,53,91,67,38,29.91,29.85,13,2,19,0.00
2014-8-2,81,70,57,64,58,53,96,67,39,29.96,29.87,17,2,27,0.00
2014-8-3,86,71,55,63,57,49,95,65,34,29.97,29.86,19,2,26,0.00
2014-8-4,85,74,66,64,62,57,87,67,40,29.92,29.83,21,2,21,0.00
2014-8-5,82,71,64,69,64,60,96,80,56,29.88,29.79,6,0,13,0.35
2014-8-6,80,70,62,70,62,57,100,79,53,29.87,29.79,10,2,16,0.01
2014-8-7,84,70,56,62,55,49,95,65,31,29.92,29.83,11,2,13,0.00
2014-8-8,85,71,57,60,55,50,92,61,31,29.90,29.82,16,3,18,0.00
2014-8-9,85,73,59,58,55,48,86,56,29,29.88,29.81,14,4,20,0.00
2014-8-10,91,76,63,66,62,55,86,64,41,29.85,29.72,12,2,14,0.00
2014-8-11,78,72,69,70,66,63,100,82,62,29.73,29.57,7,0,10,2.00
2014-8-12,70,64,59,66,61,57,100,90,78,29.77,29.53,14,2,20,0.20
2014-8-13,78,67,56,62,57,49,99,74,42,29.85,29.77,20,4,25,0.01
2014-8-14,72,64,55,60,51,39,91,67,35,29.89,29.81,14,4,19,0.00
2014-8-15,76,62,46,52,45,37,93,59,29,29.92,29.79,20,0,21,0.00
2014-8-16,76,66,50,68,59,47,90,79,60,29.80,29.72,13,1,24,0.00
2014-8-17,87,74,63,69,64,60,98,75,44,29.77,29.70,15,1,18,0.00
2014-8-18,87,73,62,68,65,62,100,78,47,29.73,29.59,14,1,22,0.01
2014-8-19,83,73,66,71,66,63,95,81,61,29.62,29.55,24,4,36,0.12
2014-8-20,84,74,65,69,65,61,97,75,47,29.77,29.57,14,2,18,0.01
2014-8-21,81,73,69,74,70,65,100,90,72,29.82,29.72,17,2,36,0.86
2014-8-22,86,76,70,73,71,68,100,85,62,29.78,29.71,10,1,14,0.42
2014-8-23,76,75,73,72,71,70,92,89,86,29.78,29.76,0,0,0,0.00
2014-8-25,94,79,70,73,68,60,87,70,50,29.86,29.80,10,1,24,0.02
2014-8-26,83,72,67,72,67,64,94,85,57,29.96,29.81,27,3,38,0.51
2014-8-27,80,72,64,70,64,57,100,78,46,29.92,29.87,14,2,21,0.00
2014-8-28,85,71,60,63,61,57,93,72,46,29.93,29.84,0,0,0,0.00
2014-8-29,84,74,65,71,65,60,92,74,56,29.87,29.73,0,0,0,0.15
2014-8-30,84,76,71,70,68,65,92,76,61,29.75,29.67,21,2,26,0.05
2014-8-31,84,75,67,70,68,65,93,81,59,29.77,29.70,11,2,14,0.05
2014-9-1,83,75,71,71,68,64,93,80,55,29.73,29.58,20,4,25,0.00
2014-9-2,80,72,67,67,65,63,92,79,59,29.77,29.67,15,5,18,0.01
2014-9-3,84,73,60,66,61,54,96,70,37,29.85,29.78,13,2,18,0.01
2014-9-4,86,75,67,70,66,60,81,72,53,29.87,29.72,22,4,27,0.00
2014-9-5,92,78,68,73,68,60,96,75,48,29.84,29.68,31,6,37,0.33
2014-9-6,71,66,57,68,58,50,98,76,52,29.99,29.77,16,5,18,0.06
2014-9-7,80,65,50,59,51,47,96,66,32,30.03,29.94,5,0,7,0.01
2014-9-8,81,66,52,57,53,50,95,69,38,29.97,29.83,10,1,13,0.00
2014-9-9,72,61,54,61,56,52,94,83,64,29.87,29.74,11,1,11,0.02
2014-9-10,75,71,65,72,68,59,99,88,72,29.73,29.41,30,8,31,1.26
2014-9-11,64,56,52,60,51,48,93,85,76,30.04,29.56,20,7,29,0.00
2014-9-12,56,53,48,51,49,46,97,86,74,30.10,29.99,21,3,21,0.01
2014-9-13,60,52,46,50,44,38,95,76,43,30.14,30.00,20,4,28,0.19
2014-9-14,68,53,40,52,43,40,100,73,38,30.15,30.01,11,1,13,0.01
2014-9-15,57,52,45,54,50,43,100,93,84,30.03,29.89,5,0,11,0.33
2014-9-16,67,56,47,54,48,41,100,78,45,30.02,29.91,12,2,15,0.01
2014-9-17,70,55,42,54,46,41,100,74,40,29.92,29.78,11,1,12,0.00
2014-9-18,74,58,43,51,46,42,96,70,35,29.96,29.84,12,2,14,0.01
2014-9-19,75,62,50,52,48,44,92,66,34,30.02,29.85,12,2,14,0.00
2014-9-20,80,66,56,66,57,47,96,76,55,29.84,29.61,24,6,32,1.09
2014-9-21,68,62,53,68,55,47,100,79,59,29.90,29.52,32,8,46,0.26
2014-9-22,64,53,43,47,43,39,89,71,45,30.10,29.90,12,3,25,0.00
2014-9-23,77,57,42,52,46,40,98,72,35,30.18,30.09,5,0,10,0.00
2014-9-24,78,61,45,51,46,42,96,65,28,30.20,30.09,7,1,11,0.01
2014-9-25,83,64,49,55,50,42,95,65,26,30.12,30.02,7,0,9,0.00
2014-9-26,85,66,49,57,52,47,96,64,32,30.08,30.00,7,1,10,0.00
2014-9-27,81,66,50,61,54,49,99,70,36,30.07,29.97,7,1,11,0.00
2014-9-28,83,65,54,61,53,44,96,69,28,29.98,29.86,8,1,11,0.00
2014-9-29,78,65,50,60,54,48,99,72,44,29.86,29.71,10,1,12,0.01
2014-9-30,63,55,48,58,48,44,92,78,61,29.84,29.74,16,6,17,0.00
2014-10-1,71,56,43,50,47,41,98,76,45,29.87,29.76,10,2,12,0.00
2014-10-2,78,66,59,68,59,49,90,78,60,29.79,29.51,16,4,25,0.15
2014-10-3,69,59,45,66,54,39,100,85,58,29.60,29.27,29,9,34,1.51
2014-10-4,46,42,38,41,32,26,83,69,50,29.62,29.54,36,11,40,0.00
2014-10-5,55,48,42,41,35,29,76,61,37,29.62,29.49,22,7,34,0.00
2014-10-6,64,54,48,50,41,32,75,64,32,29.55,29.39,27,5,33,0.01
2014-10-7,62,52,46,58,46,36,94,80,64,29.65,29.46,17,2,28,0.51
2014-10-8,64,54,44,44,37,27,87,58,27,29.85,29.65,24,5,28,0.00
2014-10-9,64,54,44,44,39,34,76,58,38,29.95,29.82,11,2,13,0.00
2014-10-10,57,49,40,42,37,35,88,65,43,29.98,29.91,19,4,22,0.00
2014-10-11,61,47,37,40,35,28,92,66,29,30.06,29.94,16,2,16,0.00
2014-10-12,64,53,38,50,39,32,80,61,41,30.00,29.72,14,4,25,0.00
2014-10-13,76,67,56,67,61,50,100,83,62,29.72,29.45,14,4,24,0.50
2014-10-14,70,63,58,63,57,50,93,80,62,29.47,29.32,16,5,24,0.29
2014-10-15,59,56,54,54,52,51,94,87,77,29.59,29.46,13,1,13,0.03
2014-10-16,60,56,51,55,51,48,100,86,66,29.64,29.56,24,3,28,0.00
2014-10-17,63,55,50,50,48,46,91,76,56,29.60,29.41,34,11,42,0.00
2014-10-18,52,47,44,48,43,36,92,86,72,29.99,29.61,30,8,37,0.15
2014-10-19,55,46,34,41,37,32,93,71,50,30.05,29.81,24,4,28,0.00
2014-10-20,64,54,48,48,45,41,86,73,52,29.80,29.61,34,9,39,0.00
2014-10-21,55,50,43,46,42,36,89,75,55,30.06,29.76,29,8,38,0.00
2014-10-22,58,44,34,40,36,32,92,74,42,30.18,30.05,10,1,24,0.00
2014-10-23,61,45,30,45,37,28,100,78,45,30.11,29.92,16,1,17,0.01
2014-10-24,66,54,42,51,46,38,91,76,57,29.92,29.78,28,3,30,0.11
2014-10-25,72,60,52,54,45,29,92,64,26,29.77,29.68,26,6,34,0.00
2014-10-26,66,53,38,40,32,26,82,49,23,29.84,29.73,19,2,24,0.00
2014-10-27,77,63,44,59,46,32,76,55,39,29.73,29.46,25,7,42,0.03
2014-10-28,69,59,48,58,46,35,93,62,43,29.79,29.51,42,10,48,0.27
2014-10-29,48,44,40,36,34,32,80,68,59,29.96,29.79,25,6,30,0.00
2014-10-30,52,46,43,36,34,32,77,64,48,29.99,29.85,18,2,22,0.00
2014-10-31,45,39,32,39,33,22,93,80,66,30.06,29.76,36,13,54,0.07
2014-11-1,41,33,27,22,20,16,73,61,36,30.24,30.06,32,14,44,0.00
2014-11-2,51,37,22,29,22,17,92,59,28,30.30,30.09,19,2,24,0.00
2014-11-3,64,53,43,37,29,22,49,41,33,30.10,29.85,34,8,43,0.00
2014-11-4,57,50,42,50,41,28,96,75,34,29.94,29.77,24,10,39,0.28
2014-11-5,60,48,38,42,38,34,91,70,38,30.01,29.78,18,4,30,0.00
2014-11-6,47,43,38,46,39,32,99,86,70,29.96,29.59,34,13,44,0.31
2014-11-7,45,39,35,34,30,27,90,73,50,30.02,29.75,22,3,32,0.00
2014-11-8,45,42,38,37,32,28,79,68,56,29.78,29.58,34,6,35,0.00
2014-11-9,45,39,30,34,29,26,84,68,52,29.81,29.65,30,7,40,0.00
2014-11-10,61,51,43,41,37,33,73,60,44,29.69,29.47,20,5,40,0.00
2014-11-11,57,45,34,45,37,27,92,74,55,29.89,29.48,38,11,50,0.05
2014-11-12,34,30,26,27,20,15,74,67,61,30.12,29.89,34,11,34,0.00
2014-11-13,30,25,21,19,15,13,80,67,51,30.14,30.08,28,11,30,0.00
2014-11-14,33,24,19,19,16,12,86,71,46,30.23,30.11,26,8,32,0.00
2014-11-15,32,25,16,21,15,12,82,65,47,30.26,30.07,24,3,31,0.00
2014-11-16,31,29,27,28,24,18,94,80,66,30.06,29.74,27,2,27,0.00
2014-11-17,29,19,11,28,11,0,94,71,54,29.84,29.66,28,9,30,0.00
2014-11-18,17,14,10,9,5,0,75,67,57,30.05,29.84,29,8,30,0.00
2014-11-19,34,23,15,24,14,5,75,67,55,30.01,29.60,38,14,45,0.00
2014-11-20,29,23,18,13,10,5,76,58,38,30.10,29.84,26,12,37,0.00
2014-11-21,32,22,12,14,8,4,71,56,38,30.35,30.10,22,4,26,0.00
2014-11-22,51,42,28,45,36,14,90,78,50,30.11,29.76,26,6,30,0.23
2014-11-23,55,50,45,52,46,40,100,87,69,29.76,28.92,24,4,25,1.55
2014-11-24,54,42,28,54,38,24,100,89,75,29.67,28.90,43,8,46,0.15
2014-11-25,29,26,24,24,20,17,84,76,69,30.06,29.67,26,7,34,0.00
2014-11-26,28,26,24,20,19,18,80,75,70,30.05,29.93,21,5,39,0.00
2014-11-27,29,26,21,25,20,14,88,78,72,30.23,29.98,37,10,42,0.00
2014-11-28,32,26,19,22,17,12,78,69,56,30.23,29.80,25,6,34,0.00
2014-11-29,52,42,30,48,34,22,84,73,61,29.81,29.53,36,10,49,0.00
2014-11-30,60,51,37,54,47,34,93,86,77,29.99,29.52,40,12,59,0.01
2014-12-1,36,27,20,34,19,14,90,70,54,30.45,29.99,33,7,39,0.00
2014-12-2,32,27,20,29,22,13,92,79,68,30.39,29.93,17,6,27,0.00
2014-12-3,38,31,26,29,22,16,93,71,43,30.21,29.92,29,11,38,0.00
2014-12-4,36,29,24,25,21,18,81,72,57,30.26,30.11,14,4,22,0.00
2014-12-5,40,36,32,36,32,25,93,85,73,30.10,29.98,16,3,24,0.06
2014-12-6,38,34,25,33,29,22,90,81,69,30.46,29.99,38,8,43,0.00
2014-12-7,38,30,23,27,23,16,86,73,60,30.49,30.17,30,8,34,0.00
2014-12-8,38,35,30,37,31,25,98,86,73,30.17,29.86,21,5,36,0.12
2014-12-9,40,36,34,37,33,29,99,88,74,30.14,29.88,29,8,43,0.01
2014-12-10,34,31,26,29,24,22,88,76,70,30.18,30.06,19,7,27,0.00
2014-12-11,33,28,24,26,23,21,92,83,68,30.10,30.01,26,6,35,0.00
2014-12-12,33,26,22,33,24,20,100,93,88,30.18,30.07,18,6,24,0.00
2014-12-13,48,40,33,41,37,33,100,89,73,30.11,29.93,21,6,32,0.00
2014-12-14,50,46,43,44,42,39,89,85,78,29.96,29.88,19,6,33,0.00
2014-12-15,46,44,41,42,40,37,96,87,74,29.90,29.53,21,4,27,0.06
2014-12-16,45,41,32,44,39,31,97,94,91,29.91,29.47,36,11,41,0.30
2014-12-17,32,27,24,31,22,18,96,80,72,30.11,29.91,31,12,41,0.00
2014-12-18,27,25,25,20,19,18,79,76,72,30.15,30.07,20,4,25,0.00
2014-12-19,31,28,25,26,23,19,87,82,75,30.16,30.08,21,4,30,0.00
2014-12-20,32,30,29,27,26,24,89,83,73,30.14,30.08,12,1,20,0.00
2014-12-21,38,32,30,27,26,24,84,77,62,30.12,29.92,21,4,25,0.00
2014-12-22,41,34,28,38,30,24,92,86,80,29.92,29.49,29,9,34,0.15
2014-12-23,53,47,41,48,41,37,95,83,60,29.59,29.44,32,6,36,0.10
2014-12-24,44,39,35,40,37,33,96,91,80,29.53,29.24,37,11,38,0.31
2014-12-25,39,36,34,33,31,28,89,81,72,29.92,29.45,41,12,50,0.00
2014-12-26,52,42,34,41,36,30,86,79,66,29.95,29.87,36,7,36,0.00
2014-12-27,48,42,33,46,40,28,97,89,79,29.92,29.80,51,11,55,0.06
2014-12-28,33,30,24,28,25,21,89,81,72,30.08,29.89,21,4,26,0.00
2014-12-29,33,26,20,26,20,16,92,80,57,30.29,30.08,22,3,27,0.01
2014-12-30,26,20,13,17,12,2,82,71,56,30.46,30.28,30,5,36,0.00
2014-12-31,19,14,8,7,1,-4,67,57,40,30.43,30.07,22,6,27,0.00
2015-1-1,28,22,16,16,10,6,65,59,49,30.06,29.86,24,6,32,0.00
2015-1-2,35,27,20,21,18,14,76,67,55,30.18,29.98,22,3,25,0.00